Volver al catálogo

THORAD DELTA 1 DEB

ActivoLEO
NORAD 8183·DEBRIS·🇺🇸 United States

Lanzado Nov 15, 1974 desde Vandenberg Space Force Base

Loading…

Próximos Pases (próximas 24 horas)

TLE

ActualizadoSource: Space-Track

Época: Sep 14, 2026, 10:22 UTC

1 08183U 74089AZ  26257.43243630 -.00000016  00000-0  17391-3 0  9997
2 08183 100.7806  69.0556 0106275 319.7818  66.0895 12.32987057331772

Sigue THORAD DELTA 1 DEB en tiempo real con AllMySat

Download on the App Store